STARLINK-36967, 68013

Orbit data source: Space-Track

STARLINK-36967, 68013 is a payload satellite owned by SpaceX/Seattle (US) in LEO that was launched on Fri, 27 Feb 2026 UTC via an FALCON 9 launch vehicle from the Air Force Eastern Test Range (AFETR). Payload-class satellites include a variety of spacecraft equipped with specific instruments for various scientific and technological missions. These include communications satellites like Starlink; space stations such as the ISS; scientific satellites like the Hubble; Earth observation satellites from companies like Planet Labs, Umbra, and HawkEye 360; GPS; miniature CubeSats for education and research; and military/defense satellites.

Loading next visibility...
Identifier
68013, 2026-039AD
Orbit
LEO
Country
Flag of USUS
Related business
Manufacturer
SpaceX/Seattle
Mission
Operational Commercial Communications
Bus & Motor
STARLINK V2MO, Unknown motor
Mass
575 kg wet, ~530 kg dry
Launch date (UTC)
2026-02-27 (2 months ago)
Launch vehicle
FALCON 9
Launch site
Air Force Eastern Test Range (AFETR)
Object type
Payload
Rocket body
Debris
Shape & HBR
Box + 2 Pan, 17.7 m
Radar Cross Section
36.964 m²

Expand to show TLE details & history
Last TLE update: 9 hours ago

TLE from 9 hours ago
0 STARLINK-36967
1 68013U 26039AD  26119.35875119  .00027877  00000-0  10183-2 0  9992
2 68013  43.0010 122.6913 0001493 270.0232  90.0449 15.27593847  9450
Epoch: 2026-04-29T08:36Z
TLE epoch observation values (Epoch: 2026-04-29T08:36:36.102Z)
Latitude
-0°
Longitude
136.22002°
Altitude
482.784 km
Speed
7.626 km/s
True Right ascension
08h 10m 45s
True Declination
0° 00' 00"
Sunlit
Object was in daylight at epoch
Visualization orbit readout
Latitude
Unknown
Longitude
Unknown
Altitude
Unknown
Speed
Unknown
Apparent Right ascension
Unknown
Apparent Declination
Unknown
Sunlit
N/A
Visualization observer readout
Local Sidereal Time
01:14:02
Azimuth
Unknown
Elevation
Unknown
Doppler factor
Unknown
Orbital elements
Apogee altitude
485.977 km
Perigee altitude
483.928 km
Semi-major axis
6,863.09 km
Eccentricity
0.00015
Inclination
43.001°
RAAN
122.6913°
Arg. of periapsis
270.0232°
True anomaly
90.06201°
Mean anomaly
90.0449°
Eccentric anomaly
90.05345°
Mean motion
3.81736 °/min
Orbital period
94.31 mins
BSTAR
0.0010183
Loading maneuver chart data...
Computing Atmospheric mass density...
Loading historical data...
Loading historical data...
Loading historical data...
Loading historical data...
Loading historical data...
Loading historical data...
Loading historical data...

Documentation

Showing up to 5 results
|